Beatrice, NE

5:24 AM CDT on September 26, 2017 (GMT -0500)
Beatrice Municipal

Weather History for KBIE - January, 2001

Change the Weather History Date:

Friday, January 5, 2001

  Actual Average Record
Temperature  
Mean Temperature 37 °F -  
Max Temperature 44 °F 29 °F 68 °F (2012)
Min Temperature 30 °F 11 °F -10 °F (1971)
Degree Days  
Heating Degree Days 28    
Moisture  
Dew Point 25 °F    
Average Humidity 66    
Maximum Humidity 80    
Minimum Humidity 43    
Precipitation  
Precipitation 0.00 in - - ()
Sea Level Pressure  
Sea Level Pressure 30.04 in    
Wind  
Wind Speed 10 mph (West)    
Max Wind Speed 15 mph    
Max Gust Speed -    
Visibility 10 miles    
Events      
Averages and records for this station are not official NWS values.
T = Trace of Precipitation, MM = Missing Value Source: NWS Daily Summary

Daily Weather History Graph

Daily Weather History Graph

Search for Another Location

Airport or City:

Trip Planner

Search our weather history database for the weather conditions in past years. The results will help you decide how hot, cold, wet, or windy it might be!

Date:

Astronomy

Jan. 05, 2001 Rise Set
Actual Time 7:50 AM CST 5:15 PM CST
Civil Twilight 7:19 AM CST 5:45 PM CST
Nautical Twilight 6:45 AM CST 6:19 PM CST
Astronomical Twilight 6:12 AM CST 6:52 PM CST
Moon 1:55 PM CST (1/5) 3:01 AM CST (1/5)
Length of Visible Light 10h 26m
Length of Day
9h 25m
Waxing Gibbous, 78% of the Moon is Illuminated
Jan 5
Waxing Gibbous
Jan 9
Full
Jan 16
Last Quarter
Jan 24
New
Feb 1
First Quarter

Hourly Weather History & Observations

Time (CST) Temp. Windchill Dew Point Humidity Pressure Visibility Wind Dir Wind Speed Gust Speed Precip Events Conditions
12:09 AM 35.6 °F 27.5 °F 26.6 °F 70% 30.05 in 10.0 mi WNW 11.5 mph - N/A   Clear
12:31 AM 35.6 °F 26.6 °F 26.6 °F 70% 30.05 in 10.0 mi WNW 13.8 mph - N/A   Clear
12:49 AM 35.6 °F 28.6 °F 26.6 °F 70% 30.05 in 10.0 mi WNW 9.2 mph - N/A   Clear
1:09 AM 33.8 °F 27.0 °F 26.6 °F 75% 30.05 in 10.0 mi WNW 8.1 mph - N/A   Clear
2:34 AM 33.8 °F 25.8 °F 26.6 °F 75% 30.05 in 10.0 mi West 10.4 mph - N/A   Clear
2:49 AM 33.8 °F 23.9 °F 26.6 °F 75% 30.06 in 10.0 mi West 15.0 mph - N/A   Clear
3:11 AM 33.8 °F 23.9 °F 26.6 °F 75% 30.06 in 10.0 mi WNW 15.0 mph - N/A   Clear
3:29 AM 35.6 °F 26.6 °F 26.6 °F 70% 30.07 in 10.0 mi WNW 13.8 mph - N/A   Clear
3:51 AM 33.8 °F 25.3 °F 24.8 °F 70% 30.08 in 10.0 mi WNW 11.5 mph - N/A   Clear
4:09 AM 35.6 °F 27.5 °F 26.6 °F 70% 30.07 in 10.0 mi WNW 11.5 mph - N/A   Clear
4:31 AM 35.6 °F 27.1 °F 26.6 °F 70% 30.07 in 10.0 mi WNW 12.7 mph - N/A   Clear
5:11 AM 35.6 °F 27.1 °F 24.8 °F 65% 30.08 in 10.0 mi West 12.7 mph - N/A   Clear
5:31 AM 33.8 °F 25.8 °F 26.6 °F 75% 30.08 in 10.0 mi West 10.4 mph - N/A   Clear
5:52 AM 33.8 °F 25.8 °F 24.8 °F 70% 30.08 in 10.0 mi WNW 10.4 mph - N/A   Clear
6:31 AM 30.2 °F 20.8 °F 24.8 °F 80% 30.09 in 10.0 mi West 11.5 mph - N/A   Clear
6:49 AM 32.0 °F 23.6 °F 24.8 °F 75% 30.09 in 10.0 mi West 10.4 mph - N/A   Clear
7:09 AM 30.2 °F 20.8 °F 24.8 °F 80% 30.09 in 10.0 mi West 11.5 mph - N/A   Clear
7:29 AM 30.2 °F 21.9 °F 23.0 °F 75% 30.09 in 10.0 mi West 9.2 mph - N/A   Clear
7:51 AM 30.2 °F 22.6 °F 24.8 °F 80% 30.10 in 10.0 mi West 8.1 mph - N/A   Clear
8:29 AM 30.2 °F 22.6 °F 23.0 °F 75% 30.10 in 10.0 mi West 8.1 mph - N/A   Clear
8:54 AM 32.0 °F 23.6 °F 23.0 °F 69% 30.11 in 10.0 mi West 10.4 mph - N/A   Clear
9:10 AM 33.8 °F 25.3 °F 23.0 °F 65% 30.11 in 10.0 mi West 11.5 mph - N/A   Clear
9:31 AM 33.8 °F 25.8 °F 24.8 °F 70% 30.11 in 10.0 mi West 10.4 mph - N/A   Clear
9:50 AM 35.6 °F 27.1 °F 24.8 °F 65% 30.12 in 10.0 mi West 12.7 mph - N/A   Clear
10:11 AM 35.6 °F 28.0 °F 24.8 °F 65% 30.12 in 10.0 mi West 10.4 mph - N/A   Clear
10:50 AM 39.2 °F 33.0 °F 24.8 °F 56% 30.12 in 10.0 mi West 9.2 mph - N/A   Clear
11:10 AM 39.2 °F 33.0 °F 24.8 °F 56% 30.12 in 10.0 mi WNW 9.2 mph - N/A   Clear
11:51 AM 41.0 °F 33.9 °F 24.8 °F 53% 30.11 in 10.0 mi WNW 12.7 mph - N/A   Clear
12:10 PM 41.0 °F 33.9 °F 24.8 °F 53% 30.10 in 10.0 mi WNW 12.7 mph - N/A   Clear
12:51 PM 41.0 °F 36.4 °F 24.8 °F 53% 30.08 in 10.0 mi NW 6.9 mph - N/A   Clear
1:14 PM 42.8 °F 37.5 °F 23.0 °F 46% 30.07 in 10.0 mi West 9.2 mph - N/A   Clear
1:37 PM 42.8 °F 38.0 °F 24.8 °F 49% 30.06 in 10.0 mi WNW 8.1 mph - N/A   Clear
1:50 PM 42.8 °F 40.1 °F 24.8 °F 49% 30.06 in 10.0 mi West 4.6 mph - N/A   Clear
2:13 PM 42.8 °F 38.0 °F 24.8 °F 49% 30.05 in 10.0 mi West 8.1 mph - N/A   Clear
2:30 PM 44.6 °F 39.7 °F 24.8 °F 46% 30.04 in 10.0 mi West 9.2 mph - N/A   Clear
2:53 PM 44.6 °F 40.7 °F 24.8 °F 46% 30.03 in 10.0 mi West 6.9 mph - N/A   Clear
3:10 PM 44.6 °F 40.7 °F 24.8 °F 46% 30.03 in 10.0 mi West 6.9 mph - N/A   Clear
3:54 PM 44.6 °F 42.2 °F 23.0 °F 43% 30.03 in 10.0 mi West 4.6 mph - N/A   Clear
4:10 PM 42.8 °F 39.3 °F 24.8 °F 49% 30.03 in 10.0 mi SW 5.8 mph - N/A   Clear
4:51 PM 41.0 °F 37.1 °F 26.6 °F 57% 30.02 in 10.0 mi SW 5.8 mph - N/A   Clear
5:29 PM 35.6 °F 30.7 °F 24.8 °F 65% 30.01 in 10.0 mi SSW 5.8 mph - N/A   Clear
5:51 PM 35.6 °F 30.7 °F 26.6 °F 70% 30.01 in 10.0 mi SSW 5.8 mph - N/A   Clear
6:09 PM 37.4 °F 33.8 °F 26.6 °F 65% 30.00 in 10.0 mi South 4.6 mph - N/A   Clear
6:29 PM 35.6 °F 32.8 °F 26.6 °F 70% 29.99 in 10.0 mi East 3.5 mph - N/A   Clear
6:53 PM 33.8 °F 28.6 °F 24.8 °F 70% 29.99 in 10.0 mi ENE 5.8 mph - N/A   Clear
7:09 PM 33.8 °F 28.6 °F 26.6 °F 75% 29.99 in 10.0 mi ESE 5.8 mph - N/A   Clear
7:51 PM 33.8 °F 28.6 °F 24.8 °F 70% 29.97 in 10.0 mi ESE 5.8 mph - N/A   Clear
8:11 PM 33.8 °F 27.7 °F 24.8 °F 70% 29.96 in 10.0 mi SE 6.9 mph - N/A   Clear
8:29 PM 33.8 °F 28.6 °F 24.8 °F 70% 29.96 in 10.0 mi ESE 5.8 mph - N/A   Clear
9:11 PM 33.8 °F 28.6 °F 24.8 °F 70% 29.94 in 10.0 mi SSE 5.8 mph - N/A   Clear
9:29 PM 33.8 °F 27.7 °F 24.8 °F 70% 29.94 in 10.0 mi SSE 6.9 mph - N/A   Clear
9:51 PM 33.8 °F 27.7 °F 24.8 °F 70% 29.92 in 10.0 mi SSE 6.9 mph - N/A   Clear
10:09 PM 33.8 °F 27.0 °F 24.8 °F 70% 29.92 in 10.0 mi SE 8.1 mph - N/A   Clear
10:53 PM 30.2 °F 24.3 °F 24.8 °F 80% 29.91 in 10.0 mi East 5.8 mph - N/A   Clear
11:14 PM 30.2 °F 21.9 °F 24.8 °F 80% 29.88 in 10.0 mi SSE 9.2 mph - N/A   Clear
11:37 PM 32.0 °F 25.6 °F 23.0 °F 69% 29.88 in 10.0 mi South 6.9 mph - N/A   Clear